Lid_Strength_Index
3 3 4 4 4 4 4 4 4 4 4 4 3 3 3 3 3 3 2 2 2 2 1 1 1 1 1 3 3 0 -3 -1 -0 0 2 3 3 4 5 4 4 6 6 6 6 6 6
3 3 4 4 4 4 4 4 4 3 4 4 4 3 3 3 3 3 2 2 2 2 2 2 1 1 2 5 1 -0 0 0 0 1 2 3 4 3 4 5 5 4 5 6 6 6 6
3 3 4 3 3 4 4 4 4 4 4 3 3 4 3 3 2 2 2 2 2 2 2 1 1 -0 2 3 1 0 1 1 1 2 3 2 3 5 4 5 4 5 6 6 6 7 7
3 3 3 3 4 4 4 4 4 4 4 4 4 4 3 3 3 2 2 2 2 2 1 1 1 0 4 1 0 1 1 1 1 1 2 2 3 4 5 5 6 7 7 9 6 6 6
3 3 3 3 4 4 4 4 4 4 4 4 3 3 3 3 3 2 2 2 2 2 1 0 1 2 4 2 2 2 1 3 2 2 2 2 3 5 6 8 8 7 9 8 7 6 6
3 3 3 3 4 4 4 4 4 4 4 4 3 3 3 3 3 3 3 3 2 3 2 0 0 3 3 4 3 2 1 2 3 3 4 4 5 7 7 8 11 8 8 8 8 6 7
3 4 4 4 4 4 4 4 4 4 4 4 3 3 3 3 3 3 3 1 2 3 2 4 5 5 5 3 2 3 2 3 3 4 6 4 7 8 7 7 7 8 8 8 7 6 8
3 3 4 4 4 4 4 4 4 4 4 4 4 3 3 3 3 3 2 2 3 2 6 4 4 4 3 3 5 4 2 4 5 6 5 6 7 6 6 7 8 8 8 8 7 7 8
3 3 4 4 4 4 4 4 4 4 4 4 4 4 3 3 3 2 2 2 0 1 4 5 4 5 4 3 5 4 3 4 5 6 6 7 7 7 8 8 9 8 9 8 9 7 6
3 3 4 4 4 5 4 4 4 4 4 4 4 4 3 3 3 1 2 1 0 0 7 7 6 5 4 4 6 3 3 3 5 6 6 6 5 6 7 7 7 8 6 7 8 8 10
3 3 3 4 4 5 5 5 4 4 4 4 4 4 4 4 0 2 1 0 0 1 13 6 6 3 4 5 5 5 2 3 6 6 6 7 7 7 7 7 6 7 6 7 7 8 8
3 3 4 4 4 5 5 5 5 5 5 5 4 4 4 1 1 1 1 0 1 9 13 8 6 6 6 5 5 4 4 3 4 6 6 7 5 6 6 6 6 6 7 7 7 8 11
3 4 4 4 4 4 5 5 5 5 5 5 5 5 3 0 2 0 -0 2 9 11 7 8 7 6 6 6 6 5 6 6 7 9 9 7 7 6 5 7 6 6 8 11 11 12 12
4 4 4 4 4 5 5 5 5 5 5 5 5 6 2 0 -0 -1 1 5 12 8 8 6 6 6 7 6 6 6 7 7 6 6 8 9 11 7 6 6 7 7 8 11 14 13 12
3 4 4 4 5 5 5 5 5 6 5 6 6 -0 -0 -0 -0 -1 4 9 8 7 7 7 6 8 8 7 6 7 7 7 6 6 9 9 9 6 6 5 6 8 9 7 10 9 11
4 4 4 4 5 5 5 5 5 5 5 6 0 1 0 -0 -2 1 6 9 7 5 5 6 8 7 9 8 8 7 8 6 7 5 5 7 10 7 6 5 5 7 6 10 9 14 15
3 4 4 4 5 5 5 5 5 5 6 6 1 3 1 -0 -1 3 8 6 6 4 4 6 7 8 7 8 7 8 8 7 6 6 5 6 8 8 7 7 8 7 8 8 9 10 14
3 4 4 4 5 5 5 5 5 6 6 4 2 5 1 -1 5 4 5 6 7 5 4 5 5 6 7 7 8 8 8 7 5 5 7 6 8 10 8 6 6 6 8 8 13 13 11
3 3 4 4 5 5 5 5 5 5 6 4 4 4 1 1 7 6 5 6 5 6 6 6 6 6 6 7 11 7 7 5 5 6 7 6 9 12 12 8 7 8 7 7 8 9 13
3 3 4 5 5 5 5 5 5 6 6 4 4 6 4 2 2 5 6 6 7 5 5 5 6 5 6 7 6 8 7 6 5 5 5 5 8 10 13 10 8 9 8 7 8 16 11
2 3 4 5 5 5 5 5 5 6 6 3 4 6 4 6 5 5 5 6 7 7 5 5 6 6 7 11 7 8 7 6 5 6 6 6 10 8 8 7 8 8 8 8 9 8 11
2 2 3 5 5 5 5 5 5 6 6 3 5 5 3 4 5 5 7 6 7 6 6 7 7 6 6 7 7 8 7 7 7 6 6 6 10 8 9 8 8 9 8 8 8 8 8
1 1 2 4 6 6 5 5 5 5 5 4 4 2 3 7 6 6 6 6 6 6 5 5 5 6 6 6 5 4 4 4 5 6 7 7 9 11 13 8 9 11 9 8 8 7 7
1 1 1 4 6 6 5 5 5 5 6 4 4 3 5 6 6 6 7 7 7 7 7 5 5 6 5 3 4 4 4 5 5 5 5 8 9 10 13 10 16 9 7 7 8 7 6
1 1 1 3 5 6 5 5 5 5 5 4 4 4 5 6 6 7 7 7 6 6 6 6 5 4 3 5 7 8 8 7 7 6 6 6 8 14 14 14 10 9 8 10 11 10 6
1 1 0 2 4 6 6 5 5 5 5 4 4 4 4 6 7 7 7 6 7 6 6 6 4 3 3 6 7 10 10 9 9 9 6 7 7 12 13 16 16 9 6 5 5 13 7
2 1 1 1 3 4 5 5 5 5 5 5 4 3 5 7 5 6 6 6 6 6 6 5 5 5 4 6 9 10 10 8 10 10 11 10 9 14 13 15 11 7 6 5 13 12 6
2 1 1 1 3 4 4 4 4 5 5 5 4 4 6 7 5 5 5 5 4 5 6 5 6 5 6 8 8 8 9 7 9 8 9 10 11 12 11 13 15 5 6 12 8 5 6
3 2 2 1 2 3 4 4 4 4 4 5 4 2 3 6 5 4 4 4 4 4 4 4 5 6 4 6 6 7 8 7 8 12 7 11 8 12 12 12 5 4 5 4 4 6 7